EZS13DG LPFR-LSGG

Flight info

Callsign EZS13DG
Flight time N/A
Altitude 36000
Route ELVAR DCT BARDI N873 ZMR N976 DGO T429 TOPTU DCT TOU DCT GAI DCT MEN/N0441F300 DCT NINUN DCT LATAM DCT ETREK DCT LUXAN G53 LTP Z16 BELUS
Aircraft A320/M-SDE3FGHIRWY/LB1

Departure

Time 2026-05-07 20:15
Airport Faro - Gago Coutinho International Airport (LPFR)

Arrival

Time N/A
Airport Geneva International Airport (LSGG)
Time Latitude Longitude Altitude Speed Heading
2026-05-07 19:25 37.01890 -7.96698 20 ft 0 kts
2026-05-07 19:33 37.01889 -7.96698 20 ft 0 kts
2026-05-07 19:47 37.01888 -7.96698 -7 ft 0 kts
2026-05-07 19:47 37.01888 -7.96699 -7 ft 0 kts
2026-05-07 19:48 37.01888 -7.96698 -7 ft 0 kts
2026-05-07 19:48 37.01888 -7.96699 -7 ft 0 kts
2026-05-07 20:03 37.01884 -7.96699 20 ft 2 kts 10°
2026-05-07 20:03 37.01866 -7.96704 21 ft 3 kts 14°
2026-05-07 20:03 37.01847 -7.96711 21 ft 3 kts 22°
2026-05-07 20:03 37.01829 -7.96721 22 ft 3 kts 40°
2026-05-07 20:04 37.01818 -7.96738 22 ft 3 kts 84°
2026-05-07 20:04 37.01817 -7.96746 23 ft 0 kts 100°
2026-05-07 20:05 37.01817 -7.96747 23 ft 0 kts 100°
2026-05-07 20:08 37.01816 -7.96739 20 ft 5 kts 100°
2026-05-07 20:08 37.01805 -7.96664 20 ft 11 kts 100°
2026-05-07 20:09 37.01789 -7.96550 20 ft 15 kts 100°
2026-05-07 20:09 37.01767 -7.96409 20 ft 18 kts 101°
2026-05-07 20:09 37.01746 -7.96264 19 ft 18 kts 100°
2026-05-07 20:10 37.01685 -7.96065 18 ft 7 kts 206°
2026-05-07 20:10 37.01632 -7.96065 19 ft 9 kts 129°
2026-05-07 20:10 37.01612 -7.95967 18 ft 14 kts 100°
2026-05-07 20:10 37.01564 -7.95863 18 ft 13 kts 182°
2026-05-07 20:11 37.01501 -7.95849 19 ft 11 kts 141°
2026-05-07 20:11 37.01446 -7.95845 21 ft 0 kts 191°
2026-05-07 20:13 37.01401 -7.95856 20 ft 14 kts 191°
2026-05-07 20:13 37.01351 -7.95912 21 ft 7 kts 286°
2026-05-07 20:13 37.01353 -7.95942 21 ft 0 kts 278°
2026-05-07 20:14 37.01363 -7.96027 21 ft 33 kts 279°
2026-05-07 20:14 37.01446 -7.96608 22 ft 100 kts 280°
2026-05-07 20:15 37.01599 -7.97683 52 ft 147 kts 278°
2026-05-07 20:15 37.01777 -7.98935 676 ft 146 kts 278°
2026-05-07 20:15 37.01961 -8.00182 1336 ft 146 kts 284°
2026-05-07 20:15 37.02153 -8.01472 1781 ft 159 kts 285°
2026-05-07 20:16 37.02369 -8.02903 2013 ft 180 kts 284°
2026-05-07 20:16 37.02614 -8.04539 2264 ft 201 kts 282°
2026-05-07 20:16 37.02870 -8.06293 2833 ft 208 kts 283°
2026-05-07 20:16 37.03129 -8.08067 3578 ft 208 kts 281°
2026-05-07 20:17 37.03394 -8.09891 4167 ft 217 kts 281°
2026-05-07 20:17 37.03993 -8.11642 4703 ft 228 kts 313°
2026-05-07 20:17 37.05391 -8.12608 5096 ft 242 kts 353°
2026-05-07 20:17 37.06526 -8.12655 5317 ft 253 kts
2026-05-07 20:18 37.08349 -8.12378 5709 ft 271 kts 12°
2026-05-07 20:18 37.08978 -8.12238 5936 ft 274 kts 14°